Location: Trondheim
(63.4170°N, 10.4170°E)
Time: 11:45:13
(UTC+02:00)

Iridium 82 - Visible Passes

Search period start: 20 October 2014 00:00
Search period end: 29 October 2014 23:00
Orbit: 776 x 779 km, 86.4° (Epoch: 19 October)

Date Brightness Start Highest point End Pass type
(mag) Time Alt. Az. Time Alt. Az. Time Alt. Az.
20 Oct 7.8 02:11:32 16° E 02:12:31 17° ENE 02:15:46 10° NNE visible
20 Oct 5.9 03:52:02 58° ESE 03:52:18 59° E 03:57:26 10° N visible
20 Oct 6.0 05:32:31 36° W 05:33:20 38° WNW 05:38:14 10° N visible
20 Oct 7.3 07:13:10 10° WNW 07:15:40 13° NW 07:18:10 10° NNW visible
21 Oct 8.2 01:38:26 11° ENE 01:39:27 12° ENE 01:41:22 10° NE visible
21 Oct 6.6 03:18:55 41° E 03:18:55 41° E 03:23:46 10° NNE visible
21 Oct 5.6 04:59:25 54° W 04:59:35 54° WNW 05:04:44 10° N visible
21 Oct 7.0 06:39:54 15° WNW 06:41:33 18° NW 06:45:02 10° N visible
22 Oct 7.2 02:45:47 29° ENE 02:45:47 29° ENE 02:50:02 10° NNE visible
22 Oct 5.5 04:26:17 74° NW 04:26:17 74° NW 04:31:11 10° N visible
22 Oct 6.7 06:06:46 23° WNW 06:07:32 23° WNW 06:11:42 10° N visible
23 Oct 7.6 02:12:38 21° ENE 02:12:38 21° ENE 02:16:10 10° NNE visible
23 Oct 5.9 03:53:07 62° NE 03:53:07 62° NE 03:57:36 10° N visible
23 Oct 6.3 05:33:36 32° WNW 05:33:37 32° WNW 05:38:17 10° N visible
23 Oct 7.5 07:14:33 10° WNW 07:16:10 11° NW 07:17:47 10° NNW visible
24 Oct 8.0 01:39:27 15° ENE 01:39:27 15° ENE 01:42:04 10° NNE visible
24 Oct 6.5 03:19:56 44° NE 03:19:56 44° NE 03:23:57 10° NNE visible
24 Oct 6.1 05:00:26 42° NW 05:00:26 42° NW 05:04:48 10° N visible
24 Oct 7.2 06:40:55 14° WNW 06:41:59 15° NW 06:44:55 10° NNW visible
25 Oct 8.3 01:06:15 10° ENE 01:06:15 10° ENE 01:07:04 10° NE visible
25 Oct 7.1 02:46:45 31° NE 02:46:45 31° NE 02:50:15 10° NNE visible
25 Oct 6.0 04:27:14 49° NNW 04:27:14 49° NNW 04:31:17 10° N visible
25 Oct 6.9 06:07:43 20° NW 06:07:54 20° NW 06:11:41 10° N visible
26 Oct 7.6 02:13:32 23° NE 02:13:32 23° NE 02:16:28 10° NNE visible
26 Oct 6.3 02:54:01 47° N 02:54:01 47° N 02:57:43 10° N visible
26 Oct 6.7 04:34:30 26° NW 04:34:30 26° NW 04:38:18 10° N visible
27 Oct 7.9 00:40:18 17° NE 00:40:18 17° NE 00:42:32 10° NNE visible
27 Oct 6.7 02:20:47 39° NNE 02:20:47 39° NNE 02:24:06 10° N visible
27 Oct 6.6 04:01:16 32° NW 04:01:16 32° NW 04:04:51 10° N visible
27 Oct 7.4 05:41:45 12° NW 05:42:26 13° NW 05:44:41 10° NNW visible
28 Oct 8.2 00:07:03 12° NE 00:07:03 12° NE 00:08:15 10° NE visible
28 Oct 7.2 01:47:32 30° NE 01:47:32 30° NE 01:50:26 10° NNE visible
28 Oct 6.5 03:28:01 36° NNW 03:28:01 36° NNW 03:31:21 10° N visible
28 Oct 7.2 05:08:30 17° NW 05:08:30 17° NW 05:11:36 10° N visible
29 Oct 7.6 01:14:17 23° NE 01:14:17 23° NE 01:16:42 10° NNE visible
29 Oct 6.7 02:54:46 35° N 02:54:46 35° N 02:57:48 10° N visible
29 Oct 7.0 04:35:14 21° NW 04:35:14 21° NW 04:38:17 10° N visible
